Hourly Weather Roundup
Issued by NWS Central Illinois

Home | Current Version | Previous Version | Text Only | Print | Product List | Glossary On
Versions: 1 2 3 4 5 6 7 8 9 10 11 12 13 14 15 16 17 18 19 20 21 22 23 24 25 26 27 28 29 30 31 32 33 34 35 36 37 38 39 40 41 42 43 44 45 46 47 48 49 50
000
NZUS43 KILX 121310
HWRILX

Area Weather Roundup
National Weather Service Lincoln IL
700 AM CST TUE DEC 12 2017

NOTE:  "FAIR" indicates few or no clouds below 12,000 feet, with
       no sigificant weather and/or obstructions to visibility.


CITY           SKY/WX    TMP DP  RH WIND       PRES   REMARKS
Bloomington    CLEAR     19  12  74 NW13      30.12R WCI   6
Champaign      CLEAR     21  13  71 NW17      30.10R WCI   7
Danville       CLEAR     20  10  63 NW13      30.05R WCI   8
Decatur        CLEAR     22  13  68 NW14      30.13R WCI   9
Effingham      PTCLDY    27  19  71 NW20      30.14R WCI  14
Flora          CLOUDY    30  20  64 NW13G22   30.13R WCI  20
Galesburg      CLEAR     19  13  80 NW13      30.19R WCI   5
Jacksonville   CLEAR     22  14  72 NW14      30.20R WCI   9
Lacon          CLEAR     19  13  78 NW10      30.15R WCI   7
Lawrenceville  CLOUDY    32  20  61 NW23      30.07R WCI  19
Litchfield     CLEAR     23  17  76 NW10      30.18R WCI  12
$$


CITY           SKY/WX    TMP DP  RH WIND       PRES   REMARKS
Lincoln        CLEAR     22  15  72 NW8       30.16R WCI  13
Macomb         CLEAR     19  14  82 NW14      30.23R WCI   5
Mattoon        PTCLDY    23  14  68 N20G29    30.10R WCI   8
Mt Carmel AP   NOT AVBL
Olney-Noble AP PTCLDY    29  18  62 NW20G25   30.11R WCI  16
Paris AP       CLEAR     22  11  64 NW13G20   30.10R WCI  10
Peoria         CLEAR     20  12  71 NW10G20   30.17R WCI   9
Pontiac        CLEAR     19  12  74 NW15      30.12R WCI   4
Rantoul        CLEAR     22  13  67 NW14      30.10R WCI   9
Robinson       CLOUDY    28  18  65 N16G25    30.09R WCI  16
Springfield    CLEAR     23  14  68 NW9       30.18R WCI  13
Taylorville    CLEAR     24  14  67 NW10      30.17R WCI  13
$$

...REGIONAL REPORTS...


CITY           SKY/WX    TMP DP  RH WIND       PRES   REMARKS
Chicago O`Hare PTCLDY    18   7  62 NW16      30.06R WCI   3
Kankakee       MOCLDY    20  10  66 NW12      30.09R WCI   8
Moline         CLEAR     19  11  70 NW16      30.19R WCI   4
Mount Sterling CLEAR     20  13  74 NW12      30.21R WCI   8
Mount Vernon   CLOUDY    31  22  69 VRB7      30.14R WCI  24
Pittsfield     PTCLDY    24  18  79 NW8       30.23R WCI  15
Quincy         CLEAR     21  16  81 NW14      30.23R WCI   8
Rockford       PTCLDY    15   6  67 NW10      30.13R WCI   2
$$


CITY           SKY/WX    TMP DP  RH WIND       PRES   REMARKS
Burlington     CLEAR     19  15  84 NW9       30.22R WCI   8
Cedar Rapids   CLEAR     13   9  84 NW12      30.20R WCI  -1
Des Moines     CLEAR     15   8  73 NW10      30.28S WCI   2
Kirksville     CLEAR     18  14  84 NW10      30.28R WCI   6
Ottumwa        CLEAR     16   8  71 NW14G22   30.25R WCI   2
St Louis       PTCLDY    29  19  66 NW13G25   30.20R WCI  19
$$


CITY           SKY/WX    TMP DP  RH WIND       PRES   REMARKS
Terre Haute    PTCLDY    25  10  53 NW16      30.07R WCI  12
Evansville     CLOUDY    34  24  67 NW14G26   30.07R WCI  25
Indianapolis   PTCLDY    24  13  62 NW17G30   30.00R WCI  11
Lafayette      CLEAR     21  12  68 NW13      30.03R WCI   9
Madison        MOCLDY    13   5  70 NW5       30.10R WCI   5
Milwaukee      MOCLDY    19   5  54 NW13G29   30.04R WCI   6
$$






USA.gov is the U.S. government's official web portal to all federal, state and local government web resources and services.